Location: Hermsdorf
(52.1857°N, 11.4780°E)
Time: 19:30:16
(UTC+00:00)

Daily predictions for brighter satellites

Satellite Brightness Start Highest point End
(mag) Time Altitude Azimuth Time Altitude Azimuth Time Altitude Azimuth
Meteor 1-5 Rocket 4.4 17:36:40 10° SSE 17:41:50 46° E 17:47:12 10° NNE
Okean 3 4.2 17:38:25 10° N 17:42:18 33° ENE 17:46:11 10° SE
COSMO-SKYMED 1 2.7 17:38:04 10° NNE 17:42:27 87° WNW 17:46:47 10° SSW
SL-4 R/B 2.9 17:39:23 10° W 17:42:43 36° SSW 17:45:54 10° SE
Cosmos 1602 4.4 17:39:52 10° SSW 17:43:44 61° WNW 17:47:40 10° N
Cosmos 1980 Rocket 4.1 17:39:20 10° W 17:44:13 28° NW 17:49:07 10° NNE
IRS-1C Rocket 4.3 17:39:07 10° SSE 17:44:24 81° WSW 17:49:44 10° NNW
SeaSat 1 3.8 17:41:29 10° ENE 17:44:56 19° ESE 17:48:22 10° SSE
Cosmos 1536 4.1 17:42:46 10° SE 17:45:40 20° E 17:48:35 10° NE
FALCON 9 DEB 3.2 17:42:32 10° WNW 17:45:41 65° SSW 17:48:50 10° ESE
Cosmos 2242 Rocket 3.6 17:41:46 10° N 17:46:18 76° ENE 17:50:45 10° SSE
Cosmos 1633 Rocket 4.0 17:42:56 10° SSW 17:47:17 55° WNW 17:51:40 10° N
MOS 1 Rocket 4.0 17:42:31 10° N 17:47:39 70° WNW 17:52:58 10° SSW
Gbstr 26 Del rocket 3.3 17:46:02 10° W 17:50:24 84° S 17:55:46 10° E
Abrixas rocket 3.5 17:52:10 10° WSW 17:54:11 22° SSW 17:56:13 10° SE
Cosmos 2333 Rocket 2.6 17:49:32 10° S 17:54:51 42° ESE 18:00:13 10° NE
Resurs 01 Rocket 3.5 17:54:12 10° E 17:56:14 13° NE 17:58:15 10° NNE
Meteor 2-4 Rocket 4.0 17:51:18 10° NNW 17:57:12 80° W 18:03:08 10° S
SAR-Lupe-1 4.4 17:54:27 10° NNE 17:57:53 41° E 18:01:18 10° S
Helios 1A Rocket 2.8 17:56:56 10° SSE 18:00:56 70° ENE 18:04:59 10° N
Cosmos 2322 Rocket 2.8 17:55:26 10° SW 18:00:59 59° NW 18:06:34 10° NNE
Lacrosse 4 Rocket 2.0 17:57:52 10° S 18:02:02 41° ESE 18:06:16 10° NE
GP-B 3.1 17:58:38 10° SSE 18:03:02 65° E 18:07:27 10° N
ARGOS 3.2 17:59:45 10° SSE 18:05:12 90° SW 18:10:41 10° NNW
ERBS 3.4 18:03:33 10° WNW 18:06:38 35° N 18:09:27 12° ENE
Cosmos 192 4.4 18:03:49 10° S 18:08:35 55° ESE 18:13:24 10° NNE
CZ-4B R/B 2.6 18:06:06 10° N 18:09:02 42° WNW 18:12:00 10° SW
Cosmos 1869 Rocket 3.8 18:05:24 10° SSE 18:09:36 48° E 18:13:52 10° NNE
CZ-4 R/B 2.4 18:06:52 10° S 18:10:38 48° W 18:14:31 10° NNW
Cosmos 2219 Rocket 2.4 18:05:57 10° S 18:11:18 49° ESE 18:16:42 10° NE
ERS-2 2.1 18:09:57 10° NNE 18:13:36 64° ESE 18:17:13 10° S
CZ-2C R/B 2.7 18:08:31 10° NNE 18:13:54 55° E 18:19:06 10° S
FALCON 9 DEB 3.8 18:11:15 10° W 18:14:17 43° SSW 18:16:47 14° SE
Cosmos 1689 Rocket 1.8 18:12:20 10° NNE 18:15:13 75° ESE 18:18:06 10° S
Cosmos 1378 3.2 18:13:56 10° N 18:17:37 53° ENE 18:21:15 10° SSE
Cosmos 1238 Rocket 3.4 18:14:23 10° SSE 18:17:46 29° E 18:20:45 10° NNE
H-2A R/B 4.4 18:15:58 10° N 18:19:20 25° WNW 18:22:43 10° WSW
USA 305 2.9 18:15:19 10° WNW 18:19:38 89° S 18:22:40 19° ESE
SL-08 RB Rocket 3.7 18:15:32 10° SSE 18:20:06 89° W 18:24:44 10° NNW
CREW DRAGON DEMO-1 DEB 4.1 18:21:25 10° SSW 18:23:38 21° SSE 18:23:59 20° SE
FALCON 9 DEB 3.8 18:20:41 10° W 18:23:46 44° SSW 18:25:51 18° SE
NOSS 3-2 (A) 4.0 18:18:52 10° S 18:23:52 33° ESE 18:29:31 10° NE
HJ-1C 4.2 18:21:28 10° S 18:24:42 51° W 18:27:57 10° NNW
COSMOS 2428 2.8 18:20:32 10° S 18:26:01 53° ESE 18:31:34 10° NE
Cosmos 1733 Rocket 4.0 18:23:23 10° SE 18:27:00 26° E 18:30:40 10° NNE
SL-16 R/B 3.8 18:24:21 10° WSW 18:29:33 36° NW 18:34:47 10° NNE
Meteor 2-20 4.5 18:27:05 10° N 18:33:10 62° ENE 18:39:14 10° SSE
USA 307 2.9 18:29:05 10° WNW 18:33:23 83° SSW 18:35:52 24° ESE
Cosmos 2369 Rocket 3.9 18:29:38 10° NNW 18:33:28 18° NNE 18:36:11 14° ENE
USA 306 2.9 18:30:20 10° WNW 18:34:39 81° SSW 18:37:06 25° ESE
SL-8 Rocket 3.9 18:28:51 10° S 18:35:04 86° E 18:41:18 10° N
CENTAUR R/B 3.2 18:30:40 10° S 18:35:41 29° ESE 18:41:28 10° ENE
Cosmos 1066 Rocket 4.3 18:30:10 10° NNW 18:35:57 87° ENE 18:41:49 10° SSE
Cosmos 1898 Rocket 3.9 18:31:00 10° NNW 18:36:03 46° ENE 18:39:11 22° ESE
ATLAS CENTAUR R/B 2.5 18:33:50 10° WSW 18:37:15 37° NW 18:40:47 10° NNE
NOSS 0 Rocket 4.4 18:31:58 10° S 18:37:30 37° ESE 18:43:04 10° NE
Cosmos 1743 3.2 18:37:57 10° SSE 18:41:32 36° E 18:45:08 10° NNE
Cosmos 1666 3.5 18:39:43 10° SSW 18:43:23 53° WNW 18:47:05 10° N
USA 308 2.9 18:39:54 10° WNW 18:44:11 76° SSW 18:46:15 29° ESE
CSL-04 Rocket 4.4 18:40:51 10° S 18:46:16 56° WSW 18:51:41 10° NNW
Meteor 1-23 Rocket 4.1 18:40:45 10° NNW 18:46:23 83° ENE 18:52:04 10° SSE
Cosmos 2322 3.8 18:41:13 10° SSW 18:46:58 82° WNW 18:52:43 10° NNE
ASTEX 1 3.3 18:45:28 10° N 18:50:20 63° E 18:55:11 10° S
BREEZE-M DEB (TANK) 4.4 18:48:50 10° SSW 18:50:06 20° S 18:50:06 20° S
GRACE-FO 1 4.4 18:47:41 10° S 18:51:18 71° E 18:55:00 10° N
GRACE-FO 2 4.4 18:48:06 10° S 18:51:44 72° E 18:55:25 10° N
Cosmos 2366 rocket 4.1 18:46:59 10° S 18:53:20 87° W 18:59:46 10° N
Cosmos 1674 Rocket 3.7 18:49:34 10° N 18:53:47 48° ENE 18:55:15 33° SE
H-2A R/B 4.2 18:49:04 10° SSW 18:53:49 30° W 18:58:32 10° NNW
SJ-6B 2.8 18:52:44 13° SSE 18:56:17 89° WSW 19:00:19 10° NNW
Cosmos 990 Rocket 3.9 18:51:26 10° NNW 18:56:38 73° ENE 18:59:40 25° SE
Cosmos 2221 Rocket 3.5 18:53:22 10° NNW 18:57:49 87° W 19:02:10 11° S
Ariane Rocket 2.9 18:55:34 15° SSE 18:59:52 79° ENE 19:04:59 10° NNW
USA 186 2.3 18:59:36 27° SSW 19:00:38 44° W 19:03:14 10° NNW
Cosmos 2297 4.3 18:55:14 10° NNW 19:00:41 41° NE 19:02:40 31° E
ARIANE 5 R/B 4.2 19:01:45 21° NE 19:01:45 21° NE 19:04:51 10° N
OBJECT-B 0.7 19:02:09 39° S 19:03:14 83° WSW 19:06:29 10° NNW
Cosmos 1763 Rocket 4.0 18:58:38 10° SSE 19:03:27 36° ESE 19:08:15 10° NE
Okean 2 4.0 19:01:11 10° N 19:04:48 36° ENE 19:04:48 36° ENE
NOSS 3-2 (C) 3.8 19:00:20 10° S 19:05:31 38° ESE 19:08:10 26° ENE
SL-08 R/B 4.5 18:59:56 10° S 19:06:22 76° E 19:12:51 10° NNE
Meteor 1-11 Rocket 4.0 19:01:42 10° SSW 19:07:20 71° WNW 19:12:55 10° N
Cosmos 1378 Rocket 3.6 19:03:53 10° N 19:08:18 57° ENE 19:09:21 44° SE
Cosmos 2360 Rocket 3.7 19:06:28 10° WSW 19:11:40 36° NW 19:16:54 10° NNE
Cosmos 1707 4.4 19:10:32 10° N 19:12:28 21° NE 19:12:28 21° NE
Cosmos 1943 Rocket 2.9 19:08:51 10° NNW 19:14:07 37° NE 19:15:25 33° ENE
Cosmos 468 Rocket 4.2 19:10:01 10° S 19:15:04 46° ESE 19:20:06 10° NE
SJ 16-02 2.4 19:11:24 10° NW 19:15:36 44° WSW 19:19:19 13° S
Cosmos 1727 Rocket 4.3 19:09:31 10° NNW 19:15:39 67° W 19:21:48 10° S
DMSP B5D2-2 4.2 19:11:03 10° NNE 19:16:17 76° WNW 19:21:29 10° SSW
Cosmos 858 Rocket 4.4 19:12:06 10° NNW 19:17:18 66° ENE 19:18:47 45° SE
Cosmos 1821 Rocket 3.9 19:11:24 10° S 19:17:32 68° E 19:23:38 10° NNE
Cosmos 2278 Rocket 2.7 19:12:24 10° NW 19:17:59 58° WSW 19:22:11 18° S
Cosmos 2237 Rocket 2.3 19:12:54 10° S 19:18:26 53° ESE 19:23:58 10° NE
Cosmos 1544 3.1 19:15:39 10° SSW 19:19:18 81° W 19:23:00 10° N
Cosmos 1000 Rocket 4.4 19:14:04 10° N 19:20:24 85° E 19:25:17 18° S
MOS 1 4.4 19:15:42 13° S 19:20:48 76° WSW 19:26:30 10° NNW
Meteor 1-21 4.3 19:15:40 10° N 19:21:20 59° ENE 19:23:05 42° SE
Cosmos 1536 3.9 19:17:58 10° SSW 19:21:48 45° WNW 19:25:39 10° N
SeaSat 1 2.4 19:18:03 10° NNE 19:23:02 85° WNW 19:27:58 10° SW
USA 81 3.9 19:17:59 10° S 19:23:15 79° E 19:28:32 10° N
SPOT 3 Rocket 3.5 19:24:24 45° SE 19:25:59 70° ENE 19:31:13 10° NNW
Cosmos 2239 Rocket 4.4 19:21:01 10° S 19:27:14 68° E 19:33:27 10° NNE
SME Rocket 4.1 19:22:56 10° NNE 19:30:55 86° WNW 19:36:02 10° SSW
Cosmos 1934 Rocket 4.0 19:30:07 44° SE 19:31:24 51° E 19:37:21 10° NNE
Resurs 01 Rocket 1.4 19:31:41 71° ESE 19:31:59 75° ENE 19:36:25 10° NNW
USA 234 3.5 19:33:09 43° ESE 19:33:56 44° SE 19:40:08 10° SSW
SPOT 1/Viking Rocket 3.8 19:33:56 46° ENE 19:33:58 46° ENE 19:38:55 10° N
Gbstr 26 Del rocket 4.0 19:32:35 10° W 19:37:13 47° SSW 19:38:19 41° S
Cosmos 1937 Rocket 3.4 19:33:31 10° NNW 19:38:43 86° WSW 19:39:49 57° SSE
Cosmos 2123 Rocket 3.9 19:32:39 10° N 19:38:56 76° ENE 19:41:02 44° SSE
Cosmos 2333 Rocket 3.3 19:33:40 10° WSW 19:39:08 45° NW 19:44:40 10° NNE
Lacrosse 4 Rocket 3.0 19:36:39 10° WSW 19:40:48 37° NW 19:45:01 10° NNE
ERBS 3.8 19:40:04 10° WNW 19:42:16 33° NNW 19:42:16 33° NNW
IGS 5A 3.8 19:44:27 56° N 19:44:27 56° N 19:47:51 10° N
SPOT 5 4.3 19:45:45 23° NNE 19:45:45 23° NNE 19:48:04 10° N
USA 238 DEB 3.5 19:38:44 10° SW 19:45:20 80° SE 19:52:19 10° NE
USA 238 3.5 19:38:51 10° SW 19:45:26 79° SE 19:52:25 10° NE
Cosmos 1842 3.6 19:41:38 10° NNW 19:45:12 65° WNW 19:45:12 65° WNW
Resurs 1-3 4.3 19:45:27 36° SSW 19:46:53 52° W 19:51:13 10° NNW
Cosmos 2219 Rocket 3.5 19:50:10 10° WSW 19:55:24 39° NW 20:00:42 10° NNE
Terra 3.4 20:00:53 24° NNE 20:00:53 24° NNE 20:03:20 10° N
USA 305 4.3 19:55:30 10° W 19:58:46 30° SW 19:58:46 30° SW
ERS-1 Rocket 3.9 20:03:06 37° NNE 20:03:06 37° NNE 20:06:39 10° N
Cosmos 1980 3.7 19:57:31 10° SW 20:03:10 77° WNW 20:08:52 10° NNE
Cosmos 1733 Rocket 4.3 20:00:33 10° SW 20:04:39 39° WNW 20:08:48 10° N
COSMOS 2428 4.1 20:05:16 10° WSW 20:10:32 38° NW 20:15:51 10° NNE
Meteor 2-9 Rocket 4.1 20:10:29 74° WSW 20:10:52 79° WNW 20:16:14 10° N
Spot 2 Rocket 3.8 20:14:35 61° N 20:14:35 61° N 20:18:52 10° NNW
NOSS 3-2 (A) 3.7 20:08:23 10° WSW 20:14:13 69° NW 20:21:04 10° NE
Cosmos 1605 Rocket 4.0 20:15:57 65° ENE 20:15:57 65° ENE 20:21:41 10° NNE
ATLAS CENTAUR R/B 3.8 20:14:57 10° NW 20:17:08 15° NNW 20:17:48 14° N
Cosmos 2369 Rocket 2.6 20:13:13 10° NNW 20:18:00 52° NNE 20:18:00 52° NNE
NOSS 0 Rocket 4.5 20:17:44 10° SW 20:23:46 55° NW 20:29:51 10° NNE
CENTAUR R/B 2.6 20:19:25 10° SW 20:25:35 80° NW 20:33:03 10° NE
ARIANE 5 R/B 4.1 20:39:17 35° NNW 20:39:17 35° NNW 20:42:02 10° NNW
Cosmos 2297 4.5 20:39:29 10° NW 20:44:37 46° W 20:44:37 46° W
USA 281 3.7 20:54:08 50° NNE 20:54:08 50° NNE 20:59:41 10° NNW
NOSS 3-2 (C) 3.8 20:50:15 10° WSW 21:02:27 12° NE 21:02:56 10° NE
Cosmos 1943 Rocket 3.1 20:52:36 10° NW 20:56:57 45° WNW 20:56:57 45° WNW
Cosmos 2237 Rocket 3.5 20:57:27 10° WSW 21:02:44 37° NW 21:08:02 10° NNE
Resurs 01 Rocket 4.2 21:09:14 16° W 21:09:14 16° W 21:11:41 10° NW
USA 234 4.3 21:20:31 34° WSW 21:20:31 34° WSW 21:23:53 10° WSW
Lacrosse 4 Rocket 4.4 21:18:22 10° NW 21:20:45 14° NNW 21:22:05 13° N
SL-16 R/B 4.4 21:29:37 18° NNE 21:29:37 18° NNE 21:31:01 10° NNE
Terra 4.2 21:39:46 20° NW 21:39:46 20° NW 21:41:24 10° NNW
Cosmos 2369 Rocket 4.3 21:57:39 10° NW 21:59:47 21° WNW 21:59:47 21° WNW
CENTAUR R/B 3.9 22:11:07 10° W 22:17:20 39° NNW 22:24:38 10° NE
Cosmos 1980 Rocket 4.5 22:58:09 10° NNW 23:00:18 20° N 23:00:18 20° N
ATLAS 3B R/B 4.2 23:35:00 30° NNE 23:35:00 30° NNE 23:38:54 10° NE
